Regional Weather Roundup
Issued by NWS Sterling, VA

Home | Current Version | Previous Version | Graphics & Text | Print | Product List | Glossary On
Versions: 1 2 3 4 5 6 7 8 9 10 11 12 13 14 15 16 17 18 19 20 21 22 23 24 25 26 27 28 29 30 31 32 33 34 35 36 37 38 39 40 41 42 43 44 45 46 47 48 49 50
000
ASUS41 KLWX 281910
RWRLWX

REGIONAL WEATHER ROUNDUP
NATIONAL WEATHER SERVICE BALTIMORE MD/WASHINGTON DC
300 PM EDT THU MAY 28 2015

Note: "FAIR" indicates few or no clouds below 12,000 feet
with no significant weather and/or obstructions to visibility.
 TC=TEMPERATURE CELSIUS

 * =Non NWS site. Station does not report precipitation (e.g. rain,
    snow, etc.), thunder, or fog.

DCZ001-MDZ009-015-VAZ040>042-051-053>054-282000-
WASHINGTON METRO

CITY           SKY/WX    TMP DP  RH WIND       PRES   REMARKS
WASHINGTON NAT PTSUNNY   92  61  35 NE3       30.17F HX  92
DULLES         PTSUNNY   88  63  43 W6        30.17F
FT BELVOIR     PTSUNNY   87  68  53 SE8       30.17F HX  90
QUANTICO       PTSUNNY   81  71  71 S9        30.18F
LEESBURG*      MOSUNNY   88  64  45 W13       30.19F
MANASSAS*      SUNNY     88  64  45 CALM      30.18S
GAITHERSBURG*  MOSUNNY   86  64  48 W9        30.22S

$$

MDZ006>007-011-014-282000-
BALTIMORE METRO

CITY           SKY/WX    TMP DP  RH WIND       PRES   REMARKS
BWI AIRPORT    PTSUNNY   88  63  43 S3        30.15F
MD SCIENCE CTR   N/A     86  68  54 MISG      30.15F
MARTIN STATE   MOSUNNY   84  75  74 SE8       30.17F HX  92
ANNAPOLIS      PTSUNNY   79  68  69 SE12      30.17S

$$

MDZ012-015-019>023-282000-
MARYLAND EASTERN SHORE

CITY           SKY/WX    TMP DP  RH WIND       PRES   REMARKS
OCEAN CITY     PTSUNNY   70  64  81 S6        30.20S
SALISBURY      PTSUNNY   82  69  64 SW9       30.18F
EASTON*        MOSUNNY   86  72  62 CALM      30.21F HX  92

$$

MDZ017>025-282000-
SOUTHERN MARYLAND

CITY           SKY/WX    TMP DP  RH WIND       PRES   REMARKS
PATUXENT RIVER PTSUNNY   79  70  74 SE9       30.18S
ST INIGOES     MOSUNNY   84  69  60 SE5       30.17F
LEONARDTOWN*   NOT AVBL

$$

MDZ003>005-282000-
NORTH CENTRAL MARYLAND

CITY           SKY/WX    TMP DP  RH WIND       PRES   REMARKS
FREDERICK*     MOSUNNY   88  64  45 NW6       30.20F
HAGERSTOWN APT MOSUNNY   83  60  45 NW9       30.19F
WESTMINSTER*   NOT AVBL

$$

MDZ501>502-282000-
WESTERN MARYLAND

CITY           SKY/WX    TMP DP  RH WIND       PRES   REMARKS
OAKLAND*       NOT AVBL
CUMBERLAND*    NOT AVBL

$$

VAZ025>031-282000-
SHENANDOAH VALLEY

CITY           SKY/WX    TMP DP  RH WIND       PRES   REMARKS
WINCHESTER*    CLOUDY    86  52  30 W3        30.20F
FRONT ROYAL*   MOCLDY    82  64  54 CALM      30.19S
LURAY*         MOCLDY    88  61  40 CALM      30.20S
NEW MARKET*    MOCLDY    84  61  45 W3        30.17F
STAUNTON*      CLOUDY    86  60  41 CALM      30.23F
WAYNESBORO*    CLOUDY    78  64  63 S7        30.24S

$$

WVZ021-048>050-054>055-282000-
EASTERN WEST VIRGINIA PANHANDLE

CITY           SKY/WX    TMP DP  RH WIND       PRES   REMARKS
MARTINSBURG    PTSUNNY   86  62  44 NW6       30.20F
PETERSBURG*    PTSUNNY   82  56  40 CALM      30.21S

$$

VAZ036>039-050-282000-
CENTRAL FOOTHILLS

CITY           SKY/WX    TMP DP  RH WIND       PRES   REMARKS
CHARLOTTESVILL PTSUNNY   85  61  44 S7        30.19S
CULPEPER*      PTSUNNY   83  64  52 NW5       30.18F
ORANGE*        PTSUNNY   88  64  45 E6        30.20F
GORDONSVILLE*  FAIR      84  65  52 CALM      30.18F
WARRENTON*     FAIR      86  68  53 CALM      30.18S

$$

VAZ055>057-282000-
NORTH AND CENTRAL PIEDMONT

CITY           SKY/WX    TMP DP  RH WIND       PRES   REMARKS
FREDERICKSBRG* PTSUNNY   89  61  39 CALM      30.17S
STAFFORD*      PTSUNNY   88  64  44 S3        30.22S

$$

NCZ024-NYZ072-PAZ021-071-VAZ022-071-282000-
OTHER REGIONAL OBSERVATIONS

CITY           SKY/WX    TMP DP  RH WIND       PRES   REMARKS
NEW YORK CITY  MOSUNNY   83  67  58 S7        30.15F
PHILADELPHIA   PTSUNNY   88  64  44 SW7       30.14S
PITTSBURGH     PTSUNNY   77  56  48 VRB5      30.26F
ROANOKE        PTSUNNY   85  58  39 N5        30.23F
RICHMOND       CLOUDY    87  67  51 SE7       30.18F HX  90
RALEIGH        PTSUNNY   85  68  56 CALM      30.19F

$$

ANZ530>537-282000-
MARINE OBSERVATIONS

STATION/POSITION TIME  TEMP    WIND        PRES
                       AIR SEA DIR/SP/G
                 (UTC) (F)     (DEG/KT/KT) (MB)
THOMAS PT LIGHT  1900   74 73  170/ 11/ 11 1022.1F
BALT KEY BRIDGE  1800   77     120/ 12/ 13 1021.2F
COVE POINT       1800   71     180/  7/  8 1023.0S
LEWISETTA        1800   76 72              1021.8F
SOLOMONS ISLAND  1800      70                N/A
PINEY POINT      1800          160/  7/  8   N/A

$$




USA.gov is the U.S. government's official web portal to all federal, state and local government web resources and services.